Tracking 35331 objects as of 16-Sep-2026
HD Live streaming from Space Station
objects crossing your sky now

ATLAS 75E DEB

Track ATLAS 75E DEB now!
10-day predictions


NORAD ID: 25842
Int'l Code: 1983-072C
Launch date: July 14, 1983
Source: United States (US)
Launch site: AIR FORCE WESTERN TEST RANGE (AFWTR)

Note: This is SATELLITE DEBRIS
Your satellite tracking list
Your tracking list is empty




NASA's NSSDC Master Catalog

Two Line Element Set (TLE):
1 25842U 83072C   26158.57724104  .00000107  00000-0  00000-0 0  9991
2 25842  65.2685 172.1996 5121192  96.2469 323.2269  3.91919471 75123
Source of the keplerian elements: AFSPC